Theta_e
322 323 323 322 323 323 324 324 325 325 324 325 324 324 323 322 322 323 324 323 323 325 326 326 327 327 326 325 325 324 320 306 299 298 297 299 306 320 321 324 324 324 322 304 300 299 296 295 296 296 294 295 295 298 296 301 298 298 292 286 285 285 287 288 291 288 288 292 293 296 293 297 294 293 291 294 291 293 294 295 298 299 299 300 296 296 298 300
322 322 322 322 323 324 323 323 323 324 324 324 323 322 322 322 322 323 324 324 324 325 326 325 325 325 326 324 324 323 312 302 296 296 296 305 320 325 323 324 325 323 316 298 299 298 297 296 296 295 292 293 294 296 298 296 301 294 286 285 287 286 289 290 291 288 289 290 293 291 290 294 291 293 294 288 286 289 292 293 296 294 293 293 294 295 296 297
323 322 324 323 323 321 322 322 324 325 325 323 321 321 322 321 321 323 324 324 324 324 325 325 325 325 325 324 323 321 306 300 297 295 299 322 321 323 325 325 323 322 304 300 301 302 300 300 299 295 291 291 290 293 295 293 298 292 290 286 287 288 289 289 290 290 289 289 291 289 288 288 287 289 290 286 285 287 289 290 293 293 290 290 292 293 294 295
322 322 322 322 322 323 323 323 324 323 324 324 323 324 322 321 322 322 323 324 324 324 325 325 325 325 324 323 322 311 303 294 292 297 300 316 320 323 324 325 323 316 307 306 303 305 302 300 297 294 293 292 288 293 294 292 295 291 291 287 288 289 290 291 289 290 289 291 290 289 288 287 287 288 288 287 286 285 285 288 292 292 291 292 292 292 293 293
321 322 323 322 323 322 323 323 323 324 324 324 324 323 323 323 323 324 323 323 323 324 324 325 325 325 324 323 319 307 297 291 292 297 299 316 320 323 322 323 322 305 305 301 302 302 301 298 294 293 292 287 289 289 288 290 292 292 292 292 291 287 290 289 288 289 287 287 290 287 288 286 287 288 286 286 284 282 285 288 293 295 294 294 291 289 290 289
321 321 321 321 322 323 322 322 322 323 324 324 324 324 323 323 323 323 323 323 323 324 324 325 324 324 324 322 306 306 297 284 298 296 312 316 320 320 319 320 321 305 304 296 297 296 293 292 292 290 288 288 287 287 285 289 293 288 287 287 289 288 291 290 288 288 287 286 288 287 286 286 285 284 285 285 283 283 286 287 287 287 288 288 289 288 287 287
321 321 321 321 321 321 321 321 322 322 323 323 323 323 323 323 323 323 323 323 323 323 324 324 324 324 323 318 309 300 293 294 295 298 311 316 319 315 315 312 314 299 297 294 293 294 291 291 291 290 289 289 286 286 288 290 291 290 288 287 289 288 290 288 288 284 284 287 285 286 288 286 285 282 284 283 284 285 287 287 287 287 287 287 286 286 286 286
320 321 321 320 320 320 320 320 321 322 322 323 323 323 323 323 322 322 322 322 322 323 323 324 324 323 318 304 301 294 292 292 296 299 309 315 304 302 304 299 298 296 295 294 294 293 293 290 291 292 288 287 288 290 290 290 288 289 287 289 289 288 286 285 284 286 286 285 286 287 285 283 285 284 284 282 283 284 285 286 286 286 285 285 284 284 284 283
321 320 320 319 318 318 319 320 321 322 322 322 323 323 323 323 323 322 322 322 322 322 323 322 324 323 318 302 295 290 290 296 299 299 298 298 297 297 297 300 296 296 296 293 294 293 292 290 291 292 288 289 290 291 289 289 284 291 289 290 289 288 287 285 285 285 286 286 287 285 283 284 285 286 282 282 283 284 284 283 283 283 282 282 282 283 282 282
320 320 319 317 317 318 319 320 321 321 322 323 323 323 323 323 323 322 322 322 322 323 322 323 323 322 307 298 292 288 295 298 297 297 297 296 297 298 298 297 297 296 295 293 294 293 292 292 293 293 291 290 290 291 291 288 286 292 290 289 290 289 286 286 286 284 284 285 286 284 282 282 284 283 277 282 283 283 282 281 281 281 280 280 281 281 281 281
320 319 317 317 318 319 320 321 320 320 322 322 323 323 323 322 322 322 322 323 323 323 323 324 324 313 300 296 288 287 297 298 297 297 297 296 298 297 297 296 296 295 295 292 293 294 294 293 293 294 294 288 292 289 290 291 292 291 289 290 288 286 288 287 284 284 286 285 285 285 282 282 283 281 279 281 282 282 280 279 279 279 278 279 279 279 280 280
319 318 318 318 319 320 320 320 319 321 321 322 323 322 322 322 322 322 323 322 323 323 323 323 321 305 296 292 290 293 298 298 298 296 298 297 298 298 297 296 296 296 295 294 294 293 295 295 294 294 288 293 287 291 290 292 291 291 290 287 285 285 286 286 285 285 284 283 285 287 283 279 279 277 281 282 282 281 279 278 278 278 278 278 278 278 279 279
320 319 319 319 319 320 320 319 320 321 322 322 322 322 321 322 322 322 323 322 323 323 323 323 319 306 297 291 294 298 296 297 297 298 299 296 297 297 296 296 296 295 296 295 293 294 296 295 293 292 293 291 289 286 292 292 290 291 287 286 285 281 281 287 285 286 285 285 286 287 278 276 277 280 281 282 280 280 278 277 277 277 277 277 277 277 278 278
319 319 319 319 318 320 319 319 320 321 321 321 322 321 321 321 322 322 323 322 323 323 322 324 309 300 293 290 295 297 302 298 298 299 296 297 297 298 296 296 296 296 295 295 294 292 296 295 294 293 296 292 289 294 291 287 287 286 284 283 280 279 279 286 284 285 284 285 284 286 278 274 277 279 281 282 281 279 276 277 277 276 276 276 277 277 277 278
318 318 319 319 319 319 319 319 320 320 321 321 320 320 321 320 323 323 322 322 323 319 323 316 304 302 291 294 297 298 313 298 296 296 296 296 295 295 296 296 296 294 295 295 296 296 295 295 295 291 290 294 293 290 284 282 283 283 283 277 277 280 278 282 286 283 282 284 285 283 272 275 278 279 281 281 280 279 276 276 276 276 276 276 276 277 277 277
318 318 319 319 319 319 319 319 319 318 320 319 319 320 320 319 321 321 321 321 321 322 314 306 304 295 289 289 296 308 296 294 296 297 295 296 295 294 294 294 294 293 295 296 296 295 293 294 290 290 291 288 284 279 279 280 278 280 280 273 278 279 279 282 287 284 284 283 283 283 277 276 276 279 280 281 279 278 276 276 276 276 276 276 277 277 277 277
317 317 319 319 318 318 319 319 318 318 320 319 320 321 318 319 317 316 318 319 315 317 303 300 300 298 290 294 298 293 292 294 296 297 297 296 295 295 295 294 293 293 293 294 294 294 292 291 292 289 288 285 284 282 281 272 275 274 278 279 279 280 279 278 283 285 282 282 279 280 277 275 277 279 280 280 279 277 276 276 276 276 276 276 276 276 276 276
317 317 318 318 318 319 319 318 318 318 319 319 318 319 309 317 318 315 307 309 306 306 303 304 299 295 290 293 290 292 294 293 296 295 294 297 296 295 295 293 293 292 292 291 292 290 291 289 288 284 283 284 284 281 277 275 278 278 277 276 277 277 279 280 280 283 281 281 278 278 276 276 277 278 278 279 279 277 276 276 276 276 276 276 276 276 276 276
317 318 318 318 318 319 319 319 318 318 318 319 319 319 318 317 306 301 300 299 296 291 287 290 290 283 283 289 291 293 295 296 296 295 296 297 295 295 295 295 293 291 290 287 290 290 287 287 286 281 280 281 283 282 279 282 280 281 280 279 278 278 277 280 281 283 281 278 277 276 275 275 277 277 278 278 278 277 276 276 276 275 276 275 275 275 275 275
317 317 317 317 318 318 318 318 317 318 319 312 306 305 298 298 291 291 295 298 291 292 292 294 293 293 291 290 293 296 297 295 294 295 296 298 294 292 293 293 291 291 288 286 287 289 287 281 278 277 281 281 282 283 283 283 283 283 281 280 278 278 278 280 282 282 281 278 276 276 276 276 276 277 277 277 278 277 276 275 275 275 275 275 275 275 275 275
317 317 316 317 318 318 318 317 318 317 318 305 302 298 293 291 286 287 290 294 293 294 294 294 295 292 292 293 293 294 291 292 292 295 296 298 294 292 291 290 287 286 286 287 288 290 286 281 281 281 282 283 283 282 283 282 281 282 281 279 278 278 278 282 283 284 282 277 275 276 276 275 275 276 276 277 277 275 275 275 275 275 275 275 275 275 275 276
316 316 316 317 317 318 318 317 317 318 314 304 299 296 296 294 299 296 290 288 295 296 294 293 290 291 291 293 294 293 291 289 293 295 298 298 294 290 289 288 285 283 285 285 283 282 281 280 282 283 283 284 282 280 280 280 280 278 279 278 276 278 279 280 282 282 282 279 275 276 275 274 275 276 277 276 276 276 276 276 276 275 275 275 275 275 276 276
316 316 316 316 317 317 317 317 316 314 298 299 297 295 297 302 303 300 295 290 291 295 293 292 291 289 291 292 294 294 289 288 286 293 294 295 292 290 288 286 284 284 286 285 283 278 279 280 284 283 284 283 282 281 280 279 278 277 276 275 276 278 276 274 279 279 278 277 276 275 274 275 276 276 276 277 276 276 277 277 276 277 276 275 276 276 276 275
315 316 316 317 317 317 317 316 312 304 299 298 297 298 302 300 300 302 296 288 288 293 295 294 293 291 290 292 295 293 289 289 288 291 295 292 288 290 287 287 283 283 283 281 283 282 280 283 285 283 282 282 280 280 280 278 277 276 278 276 275 277 278 278 276 278 278 278 278 276 274 274 274 275 275 276 277 277 276 276 276 277 277 276 277 276 276 276
315 315 315 316 316 317 316 313 300 298 298 296 297 300 300 299 300 304 294 288 284 289 297 296 293 292 294 298 295 294 291 291 290 292 293 291 290 287 288 289 283 281 283 283 280 281 280 284 284 281 281 280 280 279 279 278 276 276 275 279 281 279 278 277 277 279 276 274 277 277 270 270 273 274 274 276 276 275 276 275 275 275 276 276 275 276 277 278
315 316 316 315 316 316 317 302 298 299 299 294 298 302 300 299 300 302 289 281 276 284 291 287 297 290 296 294 294 291 289 287 292 293 295 293 294 292 285 283 286 283 283 282 281 281 283 283 282 280 278 279 278 279 280 279 275 274 278 280 280 279 279 278 277 277 268 269 276 279 273 263 272 272 274 275 274 275 275 275 275 275 276 276 277 277 277 277
315 315 314 315 315 313 299 293 299 303 298 296 301 299 298 299 300 302 291 272 271 284 287 293 293 292 297 293 291 290 278 282 291 294 293 295 291 294 284 281 281 284 287 283 277 278 283 281 281 279 280 279 278 278 279 280 274 275 279 280 280 279 278 278 278 276 273 276 278 278 276 269 265 273 275 275 274 274 274 275 275 276 277 277 278 278 278 278
314 314 314 315 314 310 294 300 300 294 294 300 298 298 299 300 299 294 281 269 268 288 285 287 293 296 295 293 292 286 288 288 285 291 293 293 291 289 285 281 282 282 284 278 272 281 281 280 280 279 278 279 277 279 280 280 279 278 280 280 280 279 278 278 276 275 274 277 271 275 278 272 266 272 274 275 273 274 274 275 276 277 277 278 278 278 278 278
314 315 316 314 313 311 303 301 296 296 299 299 297 298 302 299 295 287 276 269 282 285 298 290 300 292 289 291 287 286 287 290 285 290 292 291 293 288 282 283 283 283 282 282 277 279 283 283 283 279 278 278 280 279 280 280 279 279 279 280 279 278 278 278 274 274 272 269 265 272 276 270 268 272 272 274 274 275 276 276 277 277 278 278 278 278 278 279
314 314 316 315 303 299 299 297 297 298 298 298 297 301 299 295 290 279 270 267 287 279 291 290 288 286 285 284 282 286 287 287 287 288 289 285 289 290 287 287 283 278 280 280 280 282 283 285 286 280 281 282 280 280 280 280 281 281 279 278 277 275 276 275 274 271 265 261 269 273 275 276 268 272 273 272 275 277 278 278 278 278 278 278 279 279 279 278
314 314 314 310 294 297 299 297 300 298 297 296 300 300 294 284 276 268 267 273 287 286 285 284 284 287 283 282 280 283 283 282 286 284 283 285 285 286 284 280 282 276 276 278 277 279 280 280 282 281 284 283 281 280 280 279 280 278 277 276 274 273 273 268 267 268 263 261 266 274 275 277 269 273 274 277 277 276 278 278 278 278 278 278 279 279 279 279
313 313 314 302 300 297 293 291 300 299 296 299 299 292 287 279 276 273 273 286 278 280 281 281 282 282 283 280 280 281 281 282 283 282 280 278 279 280 279 277 276 269 271 273 274 277 279 280 280 281 285 282 279 277 280 278 280 279 276 275 271 262 262 260 263 262 262 263 272 273 275 273 273 274 275 275 275 277 278 279 279 278 278 278 279 279 279 279
312 311 312 304 299 293 297 296 297 298 298 298 291 289 279 272 268 270 272 277 278 284 281 284 282 281 281 279 279 281 281 281 282 282 282 280 278 277 279 280 279 276 270 274 273 274 273 276 279 280 280 282 279 275 276 274 277 277 275 266 261 258 254 256 258 261 260 270 274 273 273 270 272 273 274 274 276 277 278 278 279 279 279 278 278 278 278 279
312 307 300 301 297 299 298 296 297 299 299 294 287 285 278 274 270 285 275 276 281 281 283 281 282 279 280 279 281 281 278 281 281 281 280 277 277 276 277 279 280 278 275 274 273 269 264 268 275 279 277 280 279 278 279 277 276 276 276 273 267 261 261 259 258 261 262 266 272 273 269 262 267 269 274 275 276 276 277 277 278 279 279 279 279 279 279 278
312 303 297 299 297 299 297 296 298 299 293 289 285 277 273 269 270 272 273 277 278 281 282 281 280 276 278 277 280 280 281 278 280 279 278 278 276 275 276 277 279 278 276 270 270 269 274 272 276 280 281 280 280 280 280 278 275 274 276 275 269 267 267 262 258 262 258 262 265 262 265 268 269 274 276 276 276 276 276 277 277 278 277 277 277 278 278 278
308 303 303 297 296 297 296 298 296 299 289 287 283 276 272 271 272 277 278 283 282 281 280 280 277 274 274 274 276 278 282 279 279 276 276 276 278 277 278 279 278 278 273 269 269 267 272 273 278 279 281 278 280 280 280 279 268 275 274 267 271 276 273 265 266 270 266 260 259 262 268 271 273 274 274 274 275 276 275 277 276 277 277 277 278 278 278 279
299 299 297 296 296 298 296 297 300 291 291 286 281 273 273 278 281 279 286 282 282 283 277 274 275 276 273 273 274 274 278 279 277 275 275 278 275 278 277 277 280 279 279 274 268 272 267 272 276 277 278 281 279 280 281 279 280 273 269 274 277 277 274 266 262 257 255 258 261 266 264 264 266 263 273 273 273 274 275 275 276 276 276 277 278 278 278 278
301 296 296 296 299 297 296 297 296 289 287 287 279 284 279 280 283 283 282 281 283 280 274 275 276 278 273 274 275 274 279 276 279 276 276 277 275 280 277 277 279 279 278 278 272 271 273 265 272 277 277 280 279 280 278 279 278 277 276 278 272 262 266 266 260 257 257 256 259 262 260 263 265 265 270 271 272 273 274 275 275 276 276 277 278 278 278 278
293 291 289 296 299 298 297 293 291 290 288 282 275 281 282 280 282 282 283 282 282 280 275 278 275 278 276 272 274 273 275 273 274 276 271 276 272 279 278 278 278 279 278 279 274 275 275 266 271 276 277 278 277 274 268 273 276 277 277 275 275 269 261 263 263 260 261 258 258 259 258 266 267 265 271 272 273 274 274 274 275 276 277 277 278 278 278 278
297 290 286 296 298 296 295 297 294 289 285 280 275 276 281 282 284 283 282 283 282 278 278 278 279 275 276 277 277 275 276 277 276 276 275 277 277 280 278 279 278 279 279 278 277 278 274 275 263 274 276 275 271 274 273 274 267 271 270 267 268 263 272 268 263 265 264 257 255 256 260 258 267 272 274 274 274 275 275 275 276 277 277 278 278 278 278 278
290 287 289 297 298 298 295 295 287 282 279 280 279 282 282 282 284 284 284 284 285 285 281 281 278 276 279 274 274 277 278 275 276 274 276 277 276 271 279 279 279 277 278 276 275 274 267 271 267 270 273 272 273 275 277 275 275 273 271 269 270 266 267 260 261 259 262 263 260 257 260 264 271 275 275 275 275 275 276 276 276 276 277 277 278 277 277 277
286 280 288 298 298 295 292 285 279 278 279 277 280 284 284 291 281 282 282 282 283 283 282 280 280 279 277 278 279 278 278 275 276 274 277 274 279 276 278 279 279 280 275 273 273 276 275 272 270 265 271 275 276 279 277 278 276 275 273 273 270 264 258 258 258 259 259 261 261 259 259 263 271 274 274 275 275 275 276 276 276 276 276 276 277 277 277 277
286 287 295 296 295 294 290 278 278 280 278 282 284 282 283 283 281 283 282 282 284 282 281 281 281 280 280 281 279 278 278 274 278 276 278 277 276 277 279 279 279 278 278 272 274 276 283 265 263 270 271 272 272 273 276 275 278 275 274 273 269 268 265 263 262 256 261 259 261 257 258 264 271 273 274 273 273 273 273 274 275 276 276 276 275 275 276 276
285 289 291 297 295 292 286 277 276 276 278 284 281 283 284 283 282 281 281 281 281 280 281 280 281 281 281 280 279 280 280 271 277 276 277 277 277 279 278 279 279 278 275 275 272 276 269 271 270 259 255 264 267 270 271 273 274 272 269 270 268 267 264 260 262 259 264 257 264 260 258 260 269 274 274 274 273 274 275 275 274 275 275 275 275 275 275 275
287 285 287 291 296 292 282 278 281 277 280 281 280 281 282 281 283 284 283 282 282 279 280 280 282 282 281 280 280 279 280 279 276 277 276 277 275 280 278 278 278 278 277 278 283 279 271 270 264 262 261 261 260 260 262 266 266 273 273 272 269 267 262 265 264 262 261 260 266 258 257 269 272 272 274 274 273 273 274 275 275 274 275 275 275 275 275 275
284 281 283 287 289 289 284 281 281 280 278 274 277 281 279 280 284 283 283 284 282 282 280 282 281 281 278 278 278 277 279 279 279 274 271 274 273 277 279 278 277 279 280 281 277 276 266 271 268 262 260 262 266 269 273 276 272 267 266 268 267 267 262 260 259 259 262 256 261 265 266 270 273 273 273 274 274 274 274 275 275 275 275 275 275 275 275 275
284 282 277 281 282 285 279 280 281 279 279 278 276 279 276 279 279 283 284 282 283 282 282 281 281 280 278 277 276 278 278 278 277 274 272 270 271 276 277 279 279 279 285 282 278 268 264 267 269 271 267 272 273 273 275 275 271 273 269 268 265 264 263 264 264 261 263 260 263 264 267 264 270 273 273 273 273 273 274 274 275 275 275 276 275 275 278 275
283 283 282 286 284 280 275 280 280 281 280 279 277 281 278 278 278 276 282 283 283 281 282 281 279 279 279 280 278 272 275 274 275 271 272 272 274 274 277 280 280 281 281 277 275 271 265 268 268 267 265 269 273 274 275 273 273 272 272 270 267 267 265 265 262 266 267 262 265 266 265 266 271 273 275 275 275 276 276 276 276 276 275 274 274 274 273 273
284 283 284 284 281 279 278 283 281 282 281 278 280 281 277 277 278 279 280 281 281 280 281 275 277 279 278 279 278 273 275 268 270 271 269 270 271 271 270 274 279 275 278 275 276 263 268 263 263 265 270 273 275 275 274 273 271 270 268 271 273 268 267 269 269 265 269 268 271 271 271 270 274 275 276 276 277 276 276 276 274 273 274 274 274 273 273 273
285 281 283 281 280 278 280 280 280 280 281 281 277 281 279 278 279 280 282 280 276 280 281 279 278 278 278 278 276 273 276 276 275 272 271 272 269 269 269 271 271 275 275 275 272 273 271 265 274 266 265 267 271 270 269 270 270 270 272 270 271 270 270 269 267 268 267 269 270 271 270 270 275 276 275 276 275 273 273 273 274 274 274 273 273 272 272 272
285 281 286 287 281 280 279 278 279 277 274 278 276 281 282 279 280 280 282 282 280 279 280 279 279 279 278 278 278 278 278 278 278 278 276 276 271 274 273 272 278 272 270 271 269 268 268 268 262 261 265 266 268 270 272 272 270 268 269 269 269 269 266 268 265 269 267 267 267 265 264 268 273 273 272 273 273 273 273 274 274 274 274 273 272 272 272 272
285 286 284 283 279 280 281 277 276 276 276 279 279 280 280 280 280 281 281 282 280 282 280 280 280 280 278 279 278 279 279 278 279 279 278 278 278 278 278 278 277 275 267 269 266 270 265 264 265 262 266 260 266 269 270 270 267 263 262 267 271 271 270 266 269 269 271 273 267 265 268 273 273 273 273 274 274 274 273 274 274 274 273 273 272 272 272 272
Wind_Speed
4 4 4 4 5 5 6 6 6 6 5 5 5 5 5 5 5 6 5 5 6 6 6 6 6 6 6 6 7 8 7 1 4 3 5 3 5 6 9 9 9 10 8 2 5 7 4 5 6 8 6 1 2 0 3 0 2 1 2 2 5 3 2 4 3 3 2 3 1 0 0 11 5 1 3 3 14 9 8 12 7 16 12 13 12 14 14 13
4 4 4 4 4 5 5 6 6 6 6 5 5 6 6 5 5 5 5 5 5 6 5 5 5 6 6 6 6 7 4 1 6 5 2 3 5 6 8 9 8 7 7 3 4 3 4 5 4 6 3 1 1 1 1 2 1 3 1 2 9 2 5 4 1 2 2 1 3 3 4 5 2 1 1 8 5 4 12 8 10 14 13 15 14 13 14 13
4 4 4 4 5 5 6 6 6 6 6 6 7 8 7 7 6 5 5 5 5 5 5 5 5 5 6 5 4 5 1 2 2 4 3 3 6 7 7 6 6 4 1 0 1 1 1 1 2 3 2 1 2 3 1 2 2 3 5 4 7 5 3 3 4 3 3 4 5 5 4 12 6 1 3 7 6 8 9 7 7 12 12 11 11 12 11 13
5 5 5 5 5 5 6 6 6 6 7 7 8 7 8 8 7 7 6 6 5 5 4 5 5 4 5 5 5 2 1 3 2 2 2 6 7 8 7 4 4 1 1 0 2 1 1 0 0 2 0 0 4 1 1 4 1 2 2 4 5 5 1 3 3 1 2 5 5 5 3 10 8 7 3 8 12 6 3 2 3 13 14 12 10 11 11 12
6 7 7 7 7 7 7 8 8 8 8 8 8 8 8 8 7 6 6 6 5 5 4 4 4 5 5 5 5 1 2 2 1 1 5 6 7 9 7 3 2 0 0 1 0 0 0 0 0 1 1 2 1 1 2 2 2 3 7 6 6 2 2 5 3 1 2 4 10 4 7 4 2 14 10 4 10 3 1 1 5 8 10 11 11 8 9 10
7 8 8 8 8 8 8 9 9 9 9 9 9 9 8 8 7 7 6 5 5 4 4 3 4 5 4 5 2 1 0 1 1 2 3 6 8 9 9 3 4 1 0 2 1 2 3 3 1 1 0 1 1 1 3 1 0 5 4 3 4 4 2 1 3 2 3 4 6 4 2 5 8 9 7 15 9 3 4 6 10 11 11 10 10 11 13 13
6 6 7 7 8 8 8 9 10 10 10 10 10 10 9 8 8 6 6 5 4 3 3 3 4 5 5 2 1 4 5 0 0 5 2 6 9 11 10 3 4 1 3 4 5 3 2 2 1 0 0 1 3 1 4 1 1 3 7 2 5 3 4 2 1 7 5 10 5 5 5 9 3 14 4 15 6 7 10 13 13 12 13 14 16 14 14 13
8 7 8 8 8 9 8 9 10 11 10 10 10 9 9 8 8 7 6 5 4 4 2 2 3 3 4 1 1 3 2 1 5 5 6 8 8 9 8 1 4 3 4 3 1 3 1 2 1 0 2 1 1 1 3 4 3 4 3 0 2 3 1 4 6 9 14 11 9 13 14 7 10 9 6 9 8 9 11 13 14 14 16 16 15 14 13 14
8 8 8 8 9 9 8 9 9 9 10 9 9 9 8 6 6 7 6 4 3 3 3 3 3 1 1 2 3 3 2 2 3 6 5 6 7 8 7 3 4 3 1 2 1 1 2 1 1 0 1 1 0 3 3 3 5 0 2 0 0 1 2 5 7 8 13 7 16 21 16 13 15 15 15 5 7 7 11 16 12 16 17 14 14 12 12 13
8 8 8 9 9 8 8 8 8 9 9 7 7 7 7 7 5 5 5 4 3 3 3 3 3 0 2 2 3 4 2 2 4 4 5 5 6 8 8 3 2 2 2 4 3 5 2 1 0 3 2 0 0 1 1 3 2 1 2 2 1 1 3 2 6 5 5 4 9 15 5 2 4 5 3 4 4 6 17 15 12 16 15 12 11 10 10 12
8 7 8 10 8 8 8 6 8 10 10 9 8 8 7 6 5 4 3 2 2 2 3 4 1 2 1 2 5 2 2 3 1 4 6 6 8 9 7 8 1 1 1 2 2 0 1 1 2 0 1 2 0 4 0 1 0 2 2 1 2 2 1 1 5 7 7 2 5 21 8 6 10 6 7 4 3 8 17 13 13 13 12 11 11 11 9 10
8 8 10 10 9 10 9 9 11 10 10 9 10 10 9 7 6 5 4 1 1 3 4 4 3 1 4 8 6 2 2 3 4 4 6 4 5 5 6 5 1 1 1 1 1 1 1 1 1 1 1 0 1 2 1 1 0 1 1 4 5 7 3 3 2 5 2 3 5 16 11 9 9 6 5 5 5 12 16 13 12 12 10 10 9 9 9 8
9 9 9 9 10 11 10 12 11 10 12 11 11 9 8 7 6 6 5 4 2 2 3 2 2 2 2 4 1 3 2 2 4 7 6 2 3 3 2 0 1 2 1 0 1 1 0 1 2 1 0 2 1 0 0 1 3 1 2 1 4 5 3 5 1 0 3 3 12 3 4 2 4 7 6 5 9 14 15 11 9 8 9 8 8 9 9 8
10 10 10 10 12 12 12 12 11 11 12 11 10 7 5 5 5 5 4 2 0 1 3 2 2 3 2 0 4 3 3 2 4 6 5 5 7 8 2 3 2 0 2 1 3 3 0 0 3 1 1 1 1 3 3 6 3 0 3 3 1 3 2 5 1 1 5 2 4 2 5 3 3 4 4 3 5 16 12 9 8 7 7 7 7 8 8 8
11 11 11 12 12 13 12 11 11 11 11 10 9 6 4 4 4 4 3 3 1 0 2 3 2 1 3 0 3 5 4 1 6 4 3 7 8 7 7 6 5 4 1 1 1 1 1 2 2 2 0 1 1 2 3 3 4 2 1 3 5 1 3 7 3 2 3 1 6 4 1 6 7 5 3 3 8 15 12 8 7 7 6 6 7 8 7 7
10 10 11 12 13 12 12 11 11 10 11 10 8 5 3 3 4 3 2 1 1 2 0 1 4 7 6 2 1 2 3 3 6 5 2 4 4 3 4 5 3 4 2 0 1 1 3 3 3 1 1 3 5 3 4 4 3 5 3 2 0 0 3 2 0 5 4 4 8 1 5 9 2 4 4 3 10 13 12 8 7 8 7 6 6 6 7 8
13 13 13 13 13 13 12 11 10 8 9 9 6 4 2 3 4 2 1 1 1 1 1 1 1 2 2 3 1 4 3 4 4 3 6 3 3 1 3 4 2 6 3 1 4 2 3 2 2 1 5 5 0 2 1 4 4 2 2 0 1 1 2 2 3 4 9 3 1 7 8 0 7 7 5 4 10 12 12 9 7 6 5 5 5 5 5 5
14 14 13 13 13 12 12 11 10 7 8 8 2 3 3 6 6 4 5 4 2 4 2 1 3 3 0 5 3 6 4 5 8 7 6 6 1 3 1 1 1 5 2 2 4 3 3 1 5 3 4 6 7 7 5 1 1 3 4 4 6 1 0 4 1 3 5 9 10 9 13 9 8 6 5 5 5 11 9 8 7 6 6 5 5 4 4 5
12 12 12 11 12 11 11 10 11 7 6 8 3 4 4 2 2 5 6 5 3 4 4 6 7 3 1 6 6 6 5 5 5 5 11 11 4 1 1 1 2 3 1 3 2 1 4 3 6 7 6 8 7 4 1 1 1 3 4 4 2 3 4 4 3 3 9 8 8 4 9 8 7 5 5 5 4 9 8 7 6 5 5 5 4 4 4 4
12 11 11 11 12 12 11 11 11 7 4 3 2 2 4 2 4 3 9 9 5 5 4 0 0 1 2 5 6 7 4 5 4 9 9 5 3 4 3 2 3 7 5 2 4 2 2 8 5 1 4 3 5 3 3 3 3 1 0 0 3 1 5 4 1 2 4 8 8 5 10 7 5 5 5 6 6 8 8 7 6 5 5 4 4 4 4 4
11 11 11 12 11 11 10 12 10 10 1 3 4 3 2 5 5 2 1 1 1 1 2 0 0 1 0 2 3 5 4 4 1 8 7 5 2 2 7 4 6 9 6 3 1 2 8 8 6 3 3 3 3 4 0 1 4 0 1 0 4 2 2 1 1 1 5 7 2 4 10 5 3 4 4 5 7 7 8 7 6 6 4 4 5 5 4 4
13 12 12 12 12 10 10 10 10 7 8 4 5 4 1 2 0 1 4 3 2 2 4 1 2 4 3 2 2 3 4 2 13 16 9 11 7 6 4 8 5 5 6 4 3 8 8 6 4 5 3 2 4 4 5 5 3 3 2 1 1 1 4 4 2 3 5 8 4 3 10 4 3 3 4 4 4 3 4 8 9 9 6 6 5 5 5 4
13 13 12 12 11 10 9 9 7 5 2 5 4 3 2 0 1 1 3 6 3 2 3 3 4 3 4 4 1 3 3 8 4 11 10 8 7 6 1 6 6 3 5 7 7 3 7 3 6 3 1 4 5 6 7 5 4 5 6 4 1 3 3 2 2 5 8 3 9 4 10 4 2 4 3 1 2 3 3 4 6 7 10 9 9 8 8 7
14 13 12 11 10 9 8 7 3 6 5 5 5 2 0 1 1 1 1 2 4 1 0 0 0 0 1 3 2 3 3 3 1 11 8 5 3 3 3 2 4 5 6 2 8 10 3 3 4 4 5 5 4 5 9 8 8 4 1 2 0 3 2 2 3 2 4 10 10 9 7 1 1 2 2 3 3 5 3 4 3 1 2 4 4 4 5 7
14 14 13 13 11 8 5 3 6 1 3 3 2 1 1 1 2 1 2 2 5 1 2 0 3 1 3 1 2 0 0 0 4 1 3 4 6 4 1 0 3 4 0 1 6 8 4 4 1 4 7 6 6 7 5 4 7 7 2 2 0 1 4 3 2 2 1 2 5 7 1 4 0 1 3 3 2 3 2 6 4 4 4 5 6 6 4 4
14 13 12 14 11 8 1 3 1 2 2 1 1 0 1 1 1 1 5 4 2 4 4 3 0 2 2 3 5 1 2 3 1 4 2 6 3 1 2 4 1 3 2 1 3 3 1 3 6 3 5 6 6 3 1 2 1 2 2 0 1 1 2 3 3 1 2 1 5 5 5 4 1 3 3 2 3 3 2 4 6 5 6 7 8 7 7 8
14 13 14 14 12 3 3 1 1 1 0 1 0 1 1 2 1 2 1 4 4 1 2 3 1 1 3 3 1 1 3 4 5 6 9 10 2 1 6 5 4 1 1 1 3 2 3 7 8 6 8 7 7 9 2 2 2 3 1 1 5 5 6 5 1 4 5 2 1 5 2 2 2 3 3 2 4 3 4 5 5 7 8 9 9 8 9 9
13 14 13 13 10 9 2 3 1 1 1 0 1 2 2 1 2 2 4 3 2 2 2 4 1 3 5 6 8 5 2 3 3 6 6 7 3 4 9 3 2 3 4 4 2 1 2 3 5 6 5 7 6 2 5 0 1 3 5 4 8 5 6 2 2 3 2 0 3 2 3 2 1 2 1 3 3 4 7 7 8 8 9 9 10 10 10 10
12 12 12 12 3 9 6 3 3 2 0 0 1 2 1 2 3 4 3 2 1 1 2 1 3 2 8 6 7 3 2 4 3 1 8 5 15 3 7 5 1 1 5 6 4 0 1 2 1 3 5 5 4 4 2 3 2 4 3 6 1 1 2 2 2 3 1 3 3 4 2 3 4 2 1 2 4 8 8 9 9 10 10 10 10 9 10 9
11 12 13 12 3 6 4 2 3 1 1 2 2 1 2 3 3 2 2 1 1 1 1 3 3 5 4 5 3 7 6 4 1 3 7 4 14 10 2 1 3 3 6 6 7 1 1 5 4 5 3 1 3 3 0 1 1 4 2 4 5 5 3 2 4 2 2 3 1 3 3 5 3 4 7 8 6 3 4 4 6 7 8 9 10 11 10 10
10 10 11 9 5 1 1 1 0 0 1 2 1 3 2 8 3 4 1 1 1 2 3 3 2 4 5 7 6 6 2 2 5 4 5 5 12 9 6 3 5 5 6 7 7 9 4 2 2 2 1 3 1 3 1 0 1 3 4 3 4 4 7 4 5 5 4 3 3 1 2 4 3 2 4 5 1 3 6 7 10 10 11 10 10 10 10 10
9 8 8 6 0 1 0 1 0 0 2 2 2 4 2 0 8 5 2 4 1 3 2 4 2 1 5 2 6 6 4 5 3 5 5 4 9 13 10 7 4 5 7 6 5 4 2 4 3 6 2 5 4 6 8 6 8 10 6 8 8 3 5 5 7 6 1 1 4 2 4 1 3 1 1 2 2 3 3 6 10 12 11 10 9 10 10 10
7 6 5 4 3 2 0 1 1 1 2 2 4 3 3 6 1 2 1 4 0 1 2 2 2 4 2 2 5 4 1 6 4 4 2 2 6 4 4 7 4 1 1 3 4 8 3 3 6 5 4 2 3 6 6 7 7 7 5 2 5 3 3 0 3 1 4 7 6 3 1 2 1 2 2 3 3 3 5 6 7 10 11 11 11 10 9 9
5 4 1 2 1 0 0 1 2 2 2 2 4 5 8 8 1 0 1 1 1 2 2 2 5 4 3 4 2 2 4 0 3 3 4 1 6 6 5 6 7 7 4 1 5 0 5 4 5 4 2 3 3 2 1 1 3 2 2 2 3 4 1 2 1 1 4 7 10 5 1 1 3 2 2 5 4 3 4 6 6 7 9 10 10 9 9 9
5 1 2 1 1 0 1 2 3 1 4 6 11 7 7 1 1 1 1 2 2 2 1 2 1 2 3 3 3 2 1 1 2 2 7 6 4 2 5 6 6 2 0 1 1 1 1 4 5 2 3 2 2 1 1 1 0 1 2 5 6 0 5 1 3 3 2 5 6 3 1 1 3 0 3 2 3 2 2 1 4 5 4 4 5 8 10 10
2 1 1 1 2 1 2 1 2 2 5 9 11 9 4 1 1 1 0 1 0 1 6 4 4 6 2 4 1 4 5 1 4 2 2 4 0 3 2 1 3 4 2 2 1 3 2 3 1 7 3 1 1 2 2 1 2 4 4 4 4 3 4 0 4 1 1 2 4 1 4 3 4 2 3 2 2 4 2 1 3 5 5 5 8 9 10 10
2 1 3 3 2 0 2 2 3 5 7 10 11 3 3 0 1 2 2 0 1 0 1 2 3 2 3 3 2 7 5 2 2 3 3 1 2 3 3 2 1 3 1 2 1 2 1 7 5 4 5 1 2 1 1 2 1 2 5 5 1 2 5 3 1 5 4 1 5 2 2 4 3 4 0 2 4 5 4 4 4 5 4 7 10 10 10 11
0 1 0 3 4 0 3 3 2 3 7 12 8 6 0 2 0 1 0 1 0 1 3 3 1 5 1 0 5 3 7 5 8 3 1 3 1 0 2 3 3 4 3 2 2 2 2 2 1 1 3 5 3 1 3 2 2 6 2 1 2 1 3 5 2 3 3 3 5 5 2 4 5 5 1 7 7 8 8 6 5 7 8 10 10 10 9 8
2 2 2 5 3 1 2 2 8 6 10 12 1 6 1 0 0 0 3 4 0 1 3 1 0 1 1 1 2 1 2 3 2 2 2 2 2 1 1 2 2 2 4 1 1 1 1 1 6 2 2 3 2 4 0 5 5 2 3 4 1 4 3 1 0 2 4 4 3 7 3 4 5 4 9 9 8 8 8 6 10 12 12 11 10 10 10 9
1 2 3 0 5 1 2 1 8 10 10 9 2 2 2 1 0 1 1 1 0 1 0 1 0 0 2 0 0 1 2 1 1 2 3 2 0 1 1 3 1 6 5 3 2 0 1 1 1 6 4 2 1 2 1 1 1 4 7 3 4 1 2 2 0 1 2 2 2 1 6 6 5 5 7 9 9 11 11 12 11 11 12 12 11 10 10 10
1 4 1 4 7 1 3 14 14 9 7 0 2 3 0 1 1 0 1 1 0 1 1 1 1 1 1 1 1 0 1 2 2 1 1 0 1 1 1 0 2 3 3 2 5 2 1 2 1 5 7 3 4 2 2 1 1 1 2 1 4 2 5 3 5 2 1 1 3 1 8 9 9 3 7 8 9 9 10 11 11 11 12 11 11 10 10 9
2 2 4 6 10 3 8 11 4 1 6 4 2 1 1 1 2 1 1 0 1 1 2 3 0 1 0 0 0 1 1 1 1 1 0 1 0 1 1 4 2 1 1 0 0 2 1 1 2 3 3 4 3 1 0 2 2 2 4 0 3 3 4 2 0 3 2 2 1 2 1 10 6 3 5 7 6 8 9 9 11 10 10 10 10 10 9 9
4 1 2 6 5 8 15 8 3 6 4 0 2 2 1 1 2 1 1 2 0 1 1 2 0 0 1 0 0 0 1 0 0 0 0 1 2 4 3 1 1 3 2 1 1 1 4 1 3 6 6 5 4 4 0 1 1 2 2 2 1 0 2 6 6 4 2 3 1 1 2 10 6 3 4 4 5 4 4 6 11 10 8 8 9 9 9 8
2 3 4 4 5 5 10 5 3 1 2 1 3 1 1 1 1 2 1 1 1 2 1 0 2 1 0 0 1 0 0 1 1 2 0 1 0 2 2 1 1 0 1 0 1 1 1 1 3 1 4 8 7 8 1 2 2 1 1 1 1 2 5 1 3 0 0 6 7 5 7 8 3 1 3 3 5 6 7 7 7 9 7 7 7 7 7 7
3 1 3 7 11 9 4 4 10 6 2 4 2 3 0 3 1 0 0 1 0 1 1 1 0 1 0 0 0 0 0 1 1 1 1 0 1 1 6 4 2 0 2 3 1 0 1 2 2 1 2 5 5 5 6 6 3 2 0 1 1 7 6 1 1 0 2 3 3 2 7 9 5 2 3 5 5 7 8 8 6 6 8 8 7 7 7 7
1 3 6 8 9 8 6 2 5 7 7 3 4 0 1 1 1 2 3 0 1 0 0 0 1 1 2 2 1 2 1 2 1 1 1 1 1 1 3 1 5 2 1 4 1 1 1 0 2 5 4 5 8 7 4 1 2 1 5 2 7 0 2 3 5 4 6 3 5 10 8 12 16 11 7 8 7 10 11 9 10 11 10 9 7 7 7 7
2 4 0 1 3 9 4 5 3 2 3 3 3 1 4 0 1 1 2 0 0 0 1 2 0 0 1 2 1 0 0 0 2 2 0 3 2 2 5 3 2 4 4 2 2 3 2 0 3 3 5 8 8 7 7 1 5 6 6 8 5 5 8 6 6 7 5 3 9 6 7 5 13 10 9 8 7 8 9 9 10 9 10 11 9 8 8 7
3 1 1 0 4 1 4 4 2 5 2 2 1 1 1 0 2 1 1 0 0 0 1 1 4 1 1 1 2 0 2 1 1 1 1 1 1 4 1 1 1 2 1 0 1 0 1 0 3 4 9 6 9 10 9 3 6 6 6 7 6 7 6 11 10 10 6 6 12 6 4 5 14 12 12 11 9 10 11 11 11 11 7 5 5 7 8 9
4 2 1 1 3 1 2 2 4 7 7 3 2 2 1 2 1 1 1 1 1 1 1 0 2 3 2 1 1 0 1 1 1 0 3 1 2 1 1 2 0 4 1 0 0 1 2 1 4 3 6 9 11 8 3 5 3 4 6 9 10 8 12 12 11 7 11 10 11 12 11 15 16 16 12 12 10 9 9 7 4 3 7 8 7 8 8 8
2 3 1 5 6 4 0 1 2 5 6 2 4 1 2 2 2 0 0 1 0 1 0 1 2 3 3 1 2 1 2 3 2 1 1 2 2 1 1 3 0 1 2 0 0 0 1 3 3 0 3 8 8 5 2 3 1 8 11 7 8 8 8 9 5 6 5 9 12 14 14 16 13 8 9 8 6 4 5 7 9 9 7 7 8 9 8 8
1 1 5 9 6 2 1 2 1 3 2 4 5 1 2 1 1 3 0 1 0 0 0 1 1 1 1 1 2 2 3 3 3 6 6 5 1 4 3 2 1 1 3 0 0 1 1 3 2 2 2 7 4 1 5 5 6 7 12 9 6 4 5 5 5 8 5 11 7 5 8 11 10 3 4 5 6 6 9 10 9 9 8 8 9 9 8 9
3 1 5 6 6 2 2 0 1 3 3 1 2 2 1 2 2 4 1 1 1 1 2 2 2 1 0 0 5 3 2 4 4 4 4 5 0 1 1 1 4 1 1 0 0 0 1 1 1 1 2 7 7 1 6 6 8 8 8 8 9 8 6 2 4 3 10 7 6 8 13 8 7 5 8 10 8 10 9 9 11 9 9 9 9 9 9 9
Wind_Direction
6 2 350 348 339 332 326 324 317 313 304 303 297 302 304 310 311 310 308 313 309 313 319 326 335 332 325 341 343 342 352 60 35 42 57 235 219 257 289 291 295 297 300 350 11 39 350 10 7 347 6 38 271 98 246 167 120 76 200 128 265 202 153 216 198 188 204 128 234 317 125 119 125 143 181 47 31 62 61 61 55 57 58 85 90 99 111 119
355 347 342 337 329 318 306 297 290 281 279 285 291 294 300 302 304 296 302 301 303 315 324 332 331 330 331 343 346 347 33 57 86 82 103 233 226 264 275 281 290 298 304 39 42 63 31 345 333 9 18 2 311 230 357 237 110 146 76 114 240 165 236 162 204 209 127 248 160 62 18 100 47 321 32 80 4 31 64 43 79 78 74 81 89 101 109 112
341 332 324 319 308 297 291 286 283 281 288 303 316 316 315 313 313 308 303 303 313 324 328 330 332 327 325 342 341 349 23 31 52 15 294 269 262 273 281 275 290 313 18 312 205 133 152 263 306 14 359 288 321 229 8 259 148 224 123 224 246 209 236 229 251 213 218 141 120 95 25 70 338 45 25 96 105 50 78 112 75 99 104 101 106 104 109 108
335 325 322 311 299 297 296 298 299 309 305 305 308 300 310 309 310 314 309 311 321 329 327 325 324 327 325 336 350 353 74 69 46 266 268 269 286 303 302 284 282 356 72 265 174 157 155 95 209 147 322 81 292 21 204 269 123 271 114 199 233 202 162 278 161 183 146 128 124 95 112 66 21 20 76 150 76 39 38 329 146 132 126 119 113 112 110 109
333 327 323 322 321 321 322 325 321 316 308 301 299 300 298 304 304 302 308 309 318 327 321 311 325 321 324 336 350 99 78 53 275 250 256 292 300 306 325 289 211 105 291 251 33 86 155 242 97 49 109 245 334 9 250 263 178 99 206 215 207 128 179 249 217 120 90 77 97 91 77 122 188 36 26 46 98 87 347 16 94 106 114 112 102 81 79 79
333 333 333 331 327 326 327 325 320 313 307 304 302 299 299 300 299 297 303 308 314 320 317 319 320 312 320 333 41 83 85 21 247 274 279 273 294 317 337 348 145 122 161 29 47 324 56 355 76 29 345 115 236 175 264 183 80 234 296 265 235 209 174 216 174 249 150 86 99 86 103 91 78 78 28 61 51 350 14 67 66 66 70 78 77 81 77 77
328 328 334 331 327 325 323 323 320 316 311 308 309 310 305 305 302 302 301 307 309 314 317 323 299 300 313 356 71 80 100 224 277 259 350 310 316 341 337 13 119 41 46 29 13 37 10 17 68 242 69 358 304 210 281 342 269 186 239 346 310 187 223 150 102 55 61 89 71 95 100 78 108 80 22 59 21 37 56 69 71 70 68 66 68 66 74 76
349 340 339 337 327 325 322 323 321 314 311 310 306 305 302 301 305 304 302 299 302 297 287 287 284 291 339 54 61 10 42 302 275 273 308 339 340 331 333 46 47 32 34 46 351 357 50 48 58 111 58 141 234 48 305 356 17 192 256 261 286 65 321 87 99 84 85 77 98 78 70 59 70 95 80 45 31 38 57 66 68 71 68 66 67 66 73 75
345 344 339 334 329 324 319 315 313 310 305 305 303 305 309 311 312 310 309 306 288 259 276 266 277 320 333 85 103 69 338 240 222 279 320 348 331 333 14 344 13 39 323 64 338 234 130 274 46 130 255 328 220 329 331 38 323 118 215 56 317 102 142 133 84 97 105 108 98 85 95 98 109 84 57 52 53 58 70 65 64 71 67 64 67 68 72 76
340 337 333 332 328 327 324 316 320 312 309 314 316 322 330 331 327 314 302 301 267 246 235 255 254 235 72 78 39 72 270 274 289 277 339 353 338 354 1 343 340 44 22 333 28 47 82 203 140 219 144 248 121 274 326 123 224 195 244 210 250 91 128 239 126 141 121 111 121 111 115 60 336 96 106 53 72 89 72 68 61 72 71 69 69 67 64 74
334 333 332 333 334 336 328 322 334 323 319 335 334 340 343 344 343 345 328 263 238 234 216 226 139 140 49 83 94 98 238 37 320 338 335 4 349 355 334 323 317 67 70 6 41 173 148 141 220 96 61 216 83 293 86 225 187 247 229 330 329 7 218 66 103 154 126 63 127 111 108 68 10 52 118 128 94 87 84 71 68 70 74 72 70 69 66 68
335 335 342 336 337 340 338 341 345 331 328 337 340 348 354 352 9 16 23 54 179 213 209 223 155 126 71 75 85 84 263 226 335 330 331 2 321 295 289 285 173 156 119 322 303 287 192 155 105 57 236 356 301 305 337 208 166 253 66 330 292 357 25 19 173 202 105 132 171 122 82 31 1 109 115 118 105 84 82 78 70 74 74 73 71 71 65 65
339 337 335 337 342 339 342 347 342 337 329 341 345 348 351 354 12 31 37 68 63 182 207 134 101 79 85 40 272 253 336 289 344 342 334 25 304 261 279 137 180 163 168 161 260 243 213 143 92 63 221 94 189 181 224 70 297 346 28 110 336 7 0 322 307 80 92 168 184 195 210 27 48 107 127 131 110 87 77 72 71 75 76 74 75 75 74 66
342 340 336 340 345 340 343 344 342 340 329 334 338 344 344 356 26 40 42 76 60 136 79 154 96 64 81 200 271 278 304 319 348 359 341 319 0 318 9 358 356 192 148 194 257 237 181 93 106 140 156 102 310 279 23 334 17 176 269 50 357 24 293 311 19 119 77 179 207 15 230 180 152 156 135 155 119 97 90 87 85 78 78 80 80 82 80 70
343 340 336 342 340 338 337 341 343 340 321 328 334 333 348 4 29 40 29 13 64 43 86 69 85 76 55 287 278 297 295 41 9 312 320 7 352 334 341 346 347 325 235 187 241 78 129 72 69 40 359 304 27 29 344 8 357 4 43 297 327 97 275 299 340 61 130 47 3 89 26 183 164 159 155 131 105 100 99 99 93 94 89 85 87 91 85 78
341 336 339 341 337 333 330 335 340 333 311 324 335 322 340 24 32 35 26 45 324 105 100 64 357 105 100 41 286 4 37 20 324 302 275 35 343 284 289 313 316 9 36 303 358 24 32 91 71 175 340 12 45 84 27 26 344 356 86 270 276 42 257 359 6 30 34 121 14 135 167 112 143 161 124 130 104 104 109 104 104 99 99 99 99 92 100 100
346 344 340 337 333 326 321 324 329 322 301 320 340 329 316 5 7 351 65 55 8 254 71 125 56 67 89 247 347 25 324 284 282 343 325 343 345 250 3 5 11 348 357 360 20 45 358 62 312 21 40 94 77 93 30 17 333 327 15 359 230 277 308 294 301 32 25 82 60 13 110 7 127 131 120 101 113 109 110 118 114 110 108 107 103 100 98 92
343 339 335 327 320 311 308 315 323 323 303 314 334 319 326 343 356 98 354 22 13 69 44 81 108 46 322 15 27 315 305 295 344 301 309 318 71 19 48 3 335 5 34 23 356 56 322 16 20 166 15 16 30 26 91 264 217 284 335 353 323 348 311 231 267 319 51 18 89 79 76 105 114 111 102 112 108 109 118 124 126 123 119 112 107 106 97 98
334 330 324 317 307 305 310 313 325 325 304 303 298 263 298 358 38 67 54 343 41 350 25 331 25 88 275 299 283 292 315 289 308 9 331 350 343 56 52 77 52 19 360 53 302 29 351 50 27 39 13 352 356 56 106 255 167 260 244 235 225 305 309 283 253 320 103 56 50 40 126 125 116 107 110 102 110 114 119 116 115 115 115 116 115 116 117 113
326 324 319 316 313 315 316 321 319 319 301 6 17 40 17 17 5 345 352 28 69 111 143 249 171 242 336 356 341 288 263 14 25 339 346 347 17 7 38 59 10 53 57 34 301 42 98 74 63 324 296 273 288 286 239 243 203 260 110 124 268 234 277 283 27 152 74 80 32 69 97 103 110 127 128 120 111 111 122 125 125 129 129 131 132 125 126 126
323 327 325 322 316 312 313 320 322 328 198 112 88 72 168 168 96 75 285 21 198 95 56 281 164 154 255 254 296 354 17 326 95 352 359 286 109 59 341 21 17 37 347 295 168 319 70 59 8 286 248 263 315 334 281 76 48 7 245 196 294 185 266 273 122 288 346 111 12 77 90 73 96 108 119 121 122 141 144 137 137 141 145 143 138 140 140 145
334 331 323 319 312 306 311 322 327 14 86 95 71 110 124 184 161 191 117 58 2 36 49 351 11 19 330 211 263 140 86 339 359 358 344 28 341 71 318 73 54 31 323 355 20 19 46 63 304 300 267 111 58 50 49 73 42 48 54 268 32 321 247 287 49 39 14 75 150 124 95 63 45 70 102 149 150 157 163 155 160 150 156 153 152 155 153 144
334 328 321 316 306 305 314 316 334 32 42 40 72 82 128 205 323 249 97 122 75 319 40 16 13 1 342 320 337 64 41 35 326 347 347 3 355 66 12 47 25 346 8 28 96 33 35 323 305 317 358 73 18 19 36 38 70 19 360 40 343 267 43 315 333 49 14 115 158 148 96 89 29 66 57 360 143 132 131 141 156 164 158 171 175 169 164 168
335 325 318 310 305 304 314 315 344 40 33 114 97 119 218 60 50 113 59 101 146 320 25 251 149 147 348 7 322 53 64 5 52 343 347 22 31 295 64 60 52 37 13 28 95 94 131 288 314 46 38 93 79 20 39 31 348 342 133 117 297 348 323 173 265 85 76 30 103 104 70 39 6 100 73 20 55 99 105 100 111 137 156 150 141 159 181 177
333 328 317 317 320 316 310 33 41 66 142 50 44 252 283 96 69 51 92 26 20 20 186 349 113 31 305 289 336 31 267 27 39 245 304 51 333 33 5 131 91 8 92 123 78 77 25 325 353 43 42 39 63 35 30 31 357 331 241 164 311 242 290 311 328 359 6 46 255 145 10 250 276 209 166 157 74 102 171 148 184 170 161 160 172 183 188 195
330 320 322 332 332 334 276 62 332 150 75 75 202 327 314 73 91 73 93 80 40 278 2 1 56 336 158 333 12 104 68 48 15 3 358 344 201 109 33 16 68 26 341 77 104 103 94 334 52 79 68 49 61 90 286 76 356 47 327 229 301 248 254 278 310 53 318 223 229 204 192 279 97 277 213 195 145 175 189 193 189 179 179 182 186 188 191 190
333 323 338 345 347 5 63 219 167 125 18 319 281 326 352 42 117 87 56 5 34 286 8 257 56 312 86 328 354 51 48 299 304 11 11 3 32 339 96 339 6 317 114 136 38 351 24 353 31 37 43 41 29 12 325 84 61 318 236 316 317 317 304 283 230 180 226 179 334 179 175 230 308 242 195 207 166 195 212 223 203 196 191 193 194 195 195 196
337 330 338 354 8 53 165 123 66 77 169 198 44 16 23 82 99 54 80 66 331 317 20 315 48 325 59 311 25 83 158 288 34 335 12 314 49 357 78 34 96 354 319 73 110 258 85 358 25 24 39 40 15 293 301 126 262 253 285 319 299 293 278 284 165 198 208 125 313 295 276 333 268 309 79 135 191 236 233 213 211 207 203 200 201 202 201 202
340 328 329 351 40 71 71 107 119 124 241 238 56 48 19 77 84 103 120 105 268 56 181 93 269 25 335 3 33 19 347 7 97 282 322 4 17 177 44 15 129 89 36 77 139 281 350 118 262 122 71 6 286 321 309 179 27 282 280 294 107 33 60 96 107 120 358 69 329 307 195 197 283 174 130 239 241 244 224 214 210 206 203 203 205 208 207 206
342 337 327 341 32 14 4 40 51 157 53 38 27 57 63 61 38 36 21 351 360 337 28 274 58 296 27 25 328 5 36 353 8 321 30 68 343 29 84 66 80 46 25 9 69 180 254 308 175 75 32 271 296 297 251 190 225 294 26 352 8 36 37 17 66 85 56 39 266 252 254 157 302 206 193 170 219 216 213 201 208 212 213 211 208 204 204 205
342 338 337 355 68 235 81 30 297 340 55 52 64 75 75 42 108 99 82 236 41 285 10 18 337 8 28 42 2 335 27 347 356 44 0 357 14 32 14 13 27 48 38 18 27 344 2 352 44 292 285 296 97 334 71 27 304 48 25 10 3 349 8 32 348 37 69 302 255 303 60 193 213 286 195 215 318 211 207 206 198 206 209 210 206 207 207 204
345 337 344 34 311 69 100 229 224 87 84 106 76 60 73 337 11 75 168 337 94 301 66 299 330 41 355 308 47 351 345 335 13 38 46 16 39 39 9 73 338 22 2 20 339 353 25 46 295 313 254 27 352 46 339 4 9 28 26 26 67 298 30 349 8 12 11 224 265 11 20 350 223 214 188 180 255 273 233 222 202 200 207 206 209 207 206 206
336 338 350 28 21 42 3 180 79 97 78 55 72 47 58 92 66 276 302 327 210 23 293 138 260 359 306 51 347 329 288 49 318 34 92 18 90 53 39 57 327 106 357 343 11 13 285 286 360 337 11 20 75 61 335 8 346 14 42 75 61 40 33 350 282 214 320 292 263 325 312 208 240 299 181 218 246 250 261 243 213 198 199 202 205 207 207 209
335 338 92 345 92 72 210 99 114 95 66 43 73 43 49 61 226 310 292 280 293 351 23 24 325 359 44 83 335 352 21 287 53 354 41 355 40 26 340 5 22 8 73 355 72 284 51 348 334 20 8 339 60 129 304 226 301 291 190 114 145 144 134 340 244 309 257 244 290 324 31 242 345 250 214 235 252 269 267 243 216 207 201 200 201 201 206 209
311 94 136 16 17 329 141 113 84 94 82 69 55 82 97 209 226 193 291 305 304 321 294 336 344 45 343 18 326 350 132 306 57 74 23 49 9 37 359 339 349 70 134 73 292 86 220 218 259 253 244 11 10 298 118 104 95 281 130 99 57 330 149 143 208 189 256 317 326 342 201 183 187 196 253 255 291 286 329 272 171 196 206 198 198 207 212 213
22 8 118 357 38 298 140 124 113 88 89 68 78 45 84 170 127 123 116 193 299 13 308 356 63 45 314 321 312 30 325 49 343 83 13 71 114 40 298 326 18 343 37 114 237 41 11 35 303 317 18 84 113 328 3 107 65 300 50 353 260 212 120 67 344 329 15 54 259 182 330 294 288 311 247 289 331 274 302 274 210 204 203 199 209 214 217 218
43 345 38 330 8 242 152 117 111 87 78 88 89 65 195 299 195 176 310 68 266 181 53 88 326 52 348 314 287 345 316 35 356 80 5 123 13 13 344 311 6 19 50 133 338 174 136 264 309 33 350 331 220 160 325 36 113 58 50 309 325 68 121 115 272 327 56 89 268 38 238 301 29 303 331 293 265 259 252 249 236 234 213 213 222 218 218 218
74 53 150 21 330 87 122 137 92 61 76 79 64 123 319 88 238 200 206 19 32 27 84 81 282 87 304 69 329 354 319 87 321 41 100 14 134 41 63 330 314 71 319 314 123 282 114 4 300 275 248 285 352 74 341 331 46 111 150 295 79 324 352 333 86 2 337 323 293 306 296 262 173 248 147 242 224 239 234 236 243 240 228 227 228 230 232 234
56 82 17 323 341 139 162 101 72 64 75 68 39 85 283 157 254 167 217 157 156 109 79 281 153 335 117 75 256 310 337 39 308 53 78 355 67 81 88 167 295 8 350 339 64 301 33 141 299 293 7 305 350 63 325 298 326 22 24 25 355 108 161 16 253 187 119 264 43 291 18 254 207 221 192 223 214 224 227 225 231 228 224 224 227 228 227 227
31 39 348 300 344 84 121 111 63 46 61 91 179 98 198 101 250 278 265 178 301 88 5 94 320 339 3 182 133 17 307 59 53 320 95 313 138 38 60 343 232 317 354 349 120 359 286 109 258 281 314 38 356 350 199 151 328 329 26 353 357 355 214 110 337 146 184 200 187 226 322 276 263 206 177 212 209 214 207 218 225 229 230 229 228 227 227 226
56 103 264 321 349 303 37 46 41 31 79 140 88 132 23 184 215 299 309 219 281 297 155 171 149 106 227 39 341 241 334 19 17 50 104 327 78 330 196 192 159 309 337 9 46 350 59 4 227 301 354 4 243 248 217 196 179 173 132 160 163 51 3 50 283 351 50 99 241 146 257 272 268 200 187 200 219 213 217 216 225 230 232 231 231 231 227 230
80 46 292 326 342 79 76 60 8 85 88 72 86 133 112 116 67 321 12 352 82 71 10 104 77 114 104 158 202 323 89 24 15 84 307 114 317 120 248 127 181 207 77 73 306 263 134 177 91 299 220 248 238 198 231 231 163 162 128 151 138 131 107 108 125 279 353 252 128 168 220 272 246 203 197 208 210 214 219 211 229 234 234 235 235 233 231 224
46 148 257 336 348 75 72 55 332 36 66 184 276 23 12 58 117 235 74 335 62 57 17 52 211 73 226 212 264 350 130 93 144 145 278 227 237 216 229 23 111 82 119 323 22 288 55 83 22 287 303 293 316 317 68 79 86 359 11 67 91 268 170 175 184 188 165 303 324 323 230 257 282 228 226 234 246 252 255 214 225 239 243 242 238 231 224 223
135 77 344 333 34 94 82 121 102 84 77 350 67 75 330 148 97 4 33 329 100 358 100 344 342 132 308 119 126 47 181 88 317 111 339 165 241 206 252 357 16 84 106 307 138 273 16 305 123 324 360 338 342 349 19 327 54 138 212 267 101 78 67 147 107 74 221 228 184 130 240 274 277 331 286 285 274 258 247 243 218 239 244 239 230 228 224 226
100 329 37 325 4 52 106 180 129 139 151 129 106 62 352 20 112 150 158 20 352 151 91 345 217 235 321 47 72 324 339 98 217 336 110 151 238 337 298 197 252 267 191 239 115 72 110 205 99 67 7 355 332 320 286 296 269 270 228 211 258 136 132 87 233 75 184 278 144 185 249 254 263 307 295 268 265 268 259 254 257 233 244 235 233 231 232 228
43 93 312 3 12 38 61 43 92 124 128 127 60 289 103 70 10 329 128 5 164 110 118 195 356 74 27 36 26 6 343 358 82 251 81 301 299 315 233 109 164 215 209 133 91 52 171 181 127 151 151 196 218 237 246 144 331 292 258 190 239 102 144 113 110 112 211 219 203 239 227 285 287 283 279 265 246 246 256 256 251 253 246 243 240 238 232 233
130 79 91 56 333 46 49 16 60 59 151 162 98 198 34 70 252 344 178 46 18 131 42 60 244 81 323 65 327 319 244 302 5 83 212 196 255 240 304 200 294 247 201 127 157 87 71 304 261 176 207 222 228 241 258 212 242 251 256 266 218 179 171 148 167 217 186 94 278 251 229 225 267 279 278 277 262 257 257 259 261 257 251 237 230 236 248 253
73 235 106 192 121 183 42 360 85 78 36 75 123 80 137 100 27 111 340 80 302 355 143 318 38 53 180 192 133 78 331 2 348 237 335 230 344 329 17 94 143 336 82 23 113 127 141 203 272 119 262 239 247 252 267 254 220 228 223 237 229 201 160 185 226 214 150 179 233 248 199 241 275 275 279 279 276 270 269 262 248 247 253 242 240 242 244 244
113 136 134 350 86 244 147 153 96 104 69 77 98 77 81 98 118 210 166 321 29 337 59 242 305 308 300 275 133 188 193 61 301 285 175 230 234 342 356 330 257 36 104 18 6 161 86 271 241 192 284 294 287 271 236 202 254 268 257 246 237 180 206 209 228 206 192 228 240 257 269 262 269 278 281 280 276 265 266 273 292 269 234 233 241 247 247 249
190 122 104 15 80 104 36 55 81 63 68 5 90 335 140 166 168 297 348 123 21 304 5 88 272 288 286 161 128 122 222 197 199 250 235 129 320 142 227 188 218 344 30 181 82 313 105 278 37 338 351 288 276 301 264 226 284 290 283 255 245 221 225 223 235 245 228 271 265 265 269 273 268 264 269 267 277 296 300 279 253 245 248 245 245 246 245 245
151 139 153 123 81 335 27 29 59 96 78 344 78 225 87 180 190 178 175 199 160 217 160 236 218 296 27 119 150 232 235 194 192 213 182 159 196 221 145 281 131 285 345 33 36 308 42 267 52 66 351 296 289 332 298 305 285 259 273 276 244 202 237 220 202 216 184 233 249 288 291 269 274 244 258 282 288 280 268 267 265 259 248 243 242 245 250 254
76 28 81 104 87 303 109 54 38 58 30 233 143 204 141 221 196 140 78 205 209 212 185 179 209 123 329 116 233 228 238 193 214 221 192 207 185 207 212 208 155 167 222 168 240 227 165 123 350 30 303 255 261 344 308 323 338 323 281 234 216 218 209 258 267 226 215 209 240 248 243 240 272 296 303 289 280 274 272 265 269 263 248 238 237 243 245 249